Chicago Midway, IL

2:11 PM CDT on June 28, 2017 (GMT -0500)
Chicago-Midway

Weather History for KMDW - July, 2013

Change the Weather History Date:

Thursday, July 18, 2013

  Actual Average Record
Temperature  
Mean Temperature 88 °F 76 °F  
Max Temperature 96 °F 84 °F 101 °F (1930)
Min Temperature 79 °F 68 °F 53 °F (1979)
Degree Days  
Heating Degree Days 0 0  
Month to date heating degree days 0 0  
Since 1 June heating degree days 36 31  
Since 1 July heating degree days 0 0  
Cooling Degree Days 23 11  
Month to date cooling degree days 212 196  
Year to date cooling degree days 499 480  
Since 1 June cooling degree days 393 406  
Growing Degree Days 37 (Base 50)    
Moisture  
Dew Point 71 °F    
Average Humidity 59    
Maximum Humidity 79    
Minimum Humidity 32    
Precipitation  
Precipitation 0.00 in 0.13 in 2.36 in (1996)
Month to date precipitation 0.94 2.21  
Year to date precipitation 21.81 20.76  
Sea Level Pressure  
Sea Level Pressure 30.04 in    
Wind  
Wind Speed 9 mph (SW)    
Max Wind Speed 22 mph    
Max Gust Speed 29 mph    
Visibility 10 miles    
Events Thunderstorm    
T = Trace of Precipitation, MM = Missing Value Source: NWS Daily Summary

Daily Weather History Graph

Daily Weather History Graph

Search for Another Location

Airport or City:

Trip Planner

Search our weather history database for the weather conditions in past years. The results will help you decide how hot, cold, wet, or windy it might be!

Date:

Astronomy

Jul. 18, 2013 Rise Set
Actual Time 5:32 AM CDT 8:21 PM CDT
Civil Twilight 4:59 AM CDT 8:54 PM CDT
Nautical Twilight 4:17 AM CDT 9:35 PM CDT
Astronomical Twilight 3:29 AM CDT 10:23 PM CDT
Moon 4:18 PM CDT (7/18) 1:23 AM CDT (7/18)
Length of Visible Light 15h 55m
Length of Day
14h 49m
Waxing Gibbous, 77% of the Moon is Illuminated
Jul 18
Waxing Gibbous
Jul 22
Full
Jul 29
Last Quarter
Aug 6
New
Aug 14
First Quarter

Hourly Weather History & Observations

Time (CDT) Temp. Heat Index Dew Point Humidity Pressure Visibility Wind Dir Wind Speed Gust Speed Precip Events Conditions
12:51 AM 82.9 °F 88.0 °F 72.0 °F 69% 30.14 in 10.0 mi WSW 5.8 mph - N/A   Clear
1:51 AM 82.0 °F 86.7 °F 72.0 °F 71% 30.14 in 10.0 mi WSW 6.9 mph - N/A   Clear
2:51 AM 81.0 °F 85.2 °F 72.0 °F 74% 30.14 in 10.0 mi WSW 5.8 mph - N/A   Clear
3:51 AM 80.1 °F 83.8 °F 72.0 °F 76% 30.13 in 10.0 mi West 4.6 mph - N/A   Clear
4:51 AM 80.1 °F 83.8 °F 72.0 °F 76% 30.12 in 10.0 mi SW 4.6 mph - N/A   Clear
5:51 AM 79.0 °F - 72.0 °F 79% 30.12 in 10.0 mi SW 3.5 mph - N/A   Partly Cloudy
6:51 AM 81.0 °F 85.2 °F 72.0 °F 74% 30.12 in 10.0 mi WSW 4.6 mph - N/A   Clear
7:51 AM 84.0 °F 89.6 °F 72.0 °F 67% 30.11 in 10.0 mi WNW 4.6 mph - N/A   Clear
8:51 AM 88.0 °F 94.7 °F 72.0 °F 59% 30.11 in 10.0 mi West 6.9 mph - N/A   Clear
9:51 AM 90.0 °F 96.4 °F 71.1 °F 54% 30.10 in 10.0 mi WSW 9.2 mph - N/A   Partly Cloudy
10:51 AM 91.0 °F 96.6 °F 70.0 °F 50% 30.09 in 10.0 mi WSW 10.4 mph - N/A   Scattered Clouds
11:51 AM 91.9 °F 96.9 °F 69.1 °F 47% 30.08 in 10.0 mi SW 9.2 mph - N/A   Partly Cloudy
12:51 PM 93.0 °F 99.0 °F 70.0 °F 47% 30.06 in 10.0 mi WSW 11.5 mph 20.7 mph N/A   Partly Cloudy
1:51 PM 95.0 °F 99.5 °F 68.0 °F 41% 30.03 in 10.0 mi SSW 15.0 mph 20.7 mph N/A   Partly Cloudy
2:51 PM 95.0 °F 100.7 °F 69.1 °F 43% 30.01 in 10.0 mi SW 16.1 mph 21.9 mph N/A   Scattered Clouds
3:51 PM 95.0 °F 99.5 °F 68.0 °F 41% 29.98 in 10.0 mi WSW 15.0 mph 20.7 mph N/A   Scattered Clouds
4:51 PM 93.9 °F 99.1 °F 69.1 °F 44% 29.97 in 10.0 mi WSW 15.0 mph 20.7 mph N/A   Scattered Clouds
5:29 PM 91.4 °F 98.4 °F 71.6 °F 52% 29.99 in 10.0 mi West 11.5 mph - N/A Thunderstorm Thunderstorm
5:51 PM 88.0 °F 93.8 °F 71.1 °F 57% 29.97 in 10.0 mi SSW 18.4 mph 28.8 mph N/A Thunderstorm Thunderstorm
6:09 PM 84.2 °F 88.4 °F 69.8 °F 62% 30.00 in 10.0 mi South 10.4 mph - N/A   Mostly Cloudy
6:51 PM 87.1 °F 92.0 °F 70.0 °F 57% 29.96 in 10.0 mi SW 10.4 mph - N/A   Mostly Cloudy
7:51 PM 87.1 °F 92.8 °F 71.1 °F 59% 29.94 in 10.0 mi SSW 8.1 mph - N/A   Mostly Cloudy
8:51 PM 86.0 °F 92.2 °F 72.0 °F 63% 29.94 in 10.0 mi SSW 8.1 mph - N/A   Mostly Cloudy
9:51 PM 86.0 °F 93.0 °F 73.0 °F 65% 29.94 in 10.0 mi SSW 9.2 mph 19.6 mph N/A   Partly Cloudy
10:51 PM 84.9 °F 91.4 °F 73.0 °F 67% 29.94 in 10.0 mi SSW 10.4 mph - N/A   Clear
11:51 PM 84.0 °F 90.2 °F 73.0 °F 69% 29.93 in 10.0 mi SW 9.2 mph - N/A   Clear